This is the latest recevied weather packets stored in our database for station/object WL7CLI. If no packets are shown the sender has not sent any weather packets the latest 10 day(s).
| Time | Temp. | Humidity | Pressure | Rain* | Wind** | Luminosity | Snow |
|---|---|---|---|---|---|---|---|
| 1777490172 | 14.44° C | 47% | 1019.5 hPa | 0 mm | - | - | - |
| 1777489496 | 14.44° C | 52% | 1019.6 hPa | 0 mm | - | - | - |
| 1777489104 | 13.89° C | 53% | 1019.3 hPa | 0 mm | - | - | - |
| 1777488972 | 13.89° C | 54% | 1019.6 hPa | 0 mm | - | - | - |
| 1777488298 | 13.33° C | 53% | 1019.8 hPa | 0 mm | - | - | - |
| 1777487773 | 12.78° C | 56% | 1019.9 hPa | 0 mm | - | - | - |
| 1777487304 | 13.33° C | 52% | 1019.6 hPa | 0 mm | - | - | - |
| 1777487096 | 13.33° C | 55% | 1020 hPa | 0 mm | - | - | - |
| 1777486571 | 13.33° C | 59% | 1020 hPa | 0 mm | - | - | - |
| 1777485896 | 12.22° C | 58% | 1020.2 hPa | 0 mm | - | - | - |
| 1777485503 | 12.22° C | 57% | 1019.9 hPa | 0 mm | - | - | - |
| 1777485373 | 12.78° C | 56% | 1020.3 hPa | 0 mm | - | - | - |
| 1777484698 | 12.78° C | 60% | 1020.3 hPa | 0 mm | - | - | - |
| 1777484172 | 12.22° C | 56% | 1020.3 hPa | 0 mm | - | - | - |
| 1777483704 | 12.22° C | 61% | 1020 hPa | 0 mm | - | - | - |
| 1777483497 | 12.22° C | 61% | 1020.2 hPa | 0 mm | - | - | - |
| 1777482972 | 11.67° C | 60% | 1020.4 hPa | 0 mm | - | - | - |
| 1777482296 | 11.67° C | 59% | 1020.4 hPa | 0 mm | - | - | - |
| 1777481903 | 12.22° C | 58% | 1020.2 hPa | 0 mm | - | - | - |
| 1777481771 | 12.22° C | 60% | 1020.5 hPa | 0 mm | - | - | - |
| 1777481096 | 11.67° C | 60% | 1020.4 hPa | 0 mm | - | - | - |
| 1777480574 | 11.67° C | 59% | 1020.5 hPa | 0 mm | - | - | - |
| 1777480104 | 12.22° C | 60% | 1020.2 hPa | 0 mm | - | - | - |
| 1777479897 | 12.22° C | 61% | 1020.6 hPa | 0 mm | - | - | - |
| 1777479371 | 11.11° C | 63% | 1020.6 hPa | 0 mm | - | - | - |
* Rain latest hour (hover to see other rain measurements)
** Current wind speed in m/s (hover to see current wind gust speed)